PHASE 3B (AO-10) 1 14129U 83058B 21010.65471778 -.00000025 00000-0 00000-0 0 9998 2 14129 25.7687 181.0051 6069244 300.1722 13.3332 2.05871063254677 UOSAT 2 (UO-11) 1 14781U 84021B 21015.52903011 .00000104 00000-0 18858-4 0 9995 2 14781 97.5897 22.9344 0007480 216.2936 143.7772 14.83237385963261 LUSAT (LO-19) 1 20442U 90005G 21015.57172523 -.00000003 00000-0 15288-4 0 9999 2 20442 98.7215 329.8237 0010706 249.2642 110.7395 14.32973339618930 EYESAT A (AO-27) 1 22825U 93061C 21015.50665330 -.00000012 00000-0 13246-4 0 9999 2 22825 98.9241 29.3088 0009368 117.0713 243.1425 14.30103614424127 ITAMSAT (IO-26) 1 22826U 93061D 21015.51318943 -.00000011 00000-0 13835-4 0 9999 2 22826 98.9182 29.2394 0009961 106.1019 254.1259 14.30441138424367 RADIO ROSTO (RS-15) 1 23439U 94085A 21015.62388513 -.00000037 00000-0 15882-3 0 9990 2 23439 64.8175 263.1311 0155977 2.6890 357.4841 11.27570013 73100 JAS-2 (FO-29) 1 24278U 96046B 21015.46020471 .00000003 00000-0 38471-4 0 9991 2 24278 98.5848 103.6040 0350347 185.7869 173.9173 13.53101792205557 TECHSAT 1B (GO-32) 1 25397U 98043D 21015.83026129 -.00000010 00000-0 15249-4 0 9997 2 25397 98.7543 321.9498 0001837 130.3268 229.8071 14.23699281169990 ISS (ZARYA) 1 25544U 98067A 21015.90475541 .00001829 00000-0 40904-4 0 9995 2 25544 51.6460 15.9360 0000320 239.4903 199.1723 15.49298839264993 PCSAT (NO-44) 1 26931U 01043C 21015.56212542 -.00000136 00000-0 -20394-4 0 9999 2 26931 67.0525 315.0131 0007424 271.9542 88.0709 14.30602366 7379 SAUDISAT 1C (SO-50) 1 27607U 02058C 21015.48673502 .00000005 00000-0 21009-4 0 9992 2 27607 64.5560 86.0829 0029347 89.5942 270.8524 14.75702449972004 CUTE-1 (CO-55) 1 27844U 03031E 21015.74971788 .00000040 00000-0 37740-4 0 9991 2 27844 98.6815 26.2695 0010282 155.6596 204.5070 14.22282190910317 CUBESAT XI-IV (CO-57) 1 27848U 03031J 21015.48655802 .00000023 00000-0 30039-4 0 9997 2 27848 98.6876 26.5785 0009944 168.7471 191.3931 14.21862943910072 MOZHAYETS 4 (RS-22) 1 27939U 03042A 21015.79871556 .00000078 00000-0 22630-4 0 9998 2 27939 98.1172 154.1921 0013711 47.5065 312.7300 14.66932911925142 CUBESAT XI-V 1 28895U 05043F 21015.79553904 .00000115 00000-0 31073-4 0 9990 2 28895 98.0357 152.5935 0016092 335.3356 24.7075 14.63853763811902 CUTE-1.7+APD II (CO-65) 1 32785U 08021C 21015.48407719 .00000216 00000-0 28762-4 0 9993 2 32785 97.5945 0.4314 0013772 144.7616 215.4515 14.88611537689412 DELFI-C3 (DO-64) 1 32789U 08021G 21015.53688258 .00001339 00000-0 89913-4 0 9994 2 32789 97.3948 56.6983 0010651 313.0134 47.0202 15.08391091693770 SEEDS II (CO-66) 1 32791U 08021J 21015.51802388 .00000480 00000-0 53479-4 0 9991 2 32791 97.5572 6.5064 0014586 113.2553 247.0203 14.91246936689987 YUBILEINY (RS-30) 1 32953U 08025A 21015.79258906 .00000028 00000-0 12906-3 0 9993 2 32953 82.5039 145.8787 0018661 311.0143 48.9321 12.43099528574013 KKS-1 (KISEKI) 1 33499U 09002H 21015.56429289 .00000117 00000-0 25046-4 0 9993 2 33499 98.2893 241.9171 0009375 161.3318 198.8236 14.75606816643869 SWISSCUBE 1 35932U 09051B 21015.50314322 .00000125 00000-0 39075-4 0 9992 2 35932 98.6065 210.6359 0007353 189.3650 170.7411 14.56476476600696 BEESAT-1 1 35933U 09051C 21015.47519363 .00000101 00000-0 33719-4 0 9994 2 35933 98.6044 212.4634 0005314 200.3410 159.7576 14.56541825600761 ITUPSAT1 1 35935U 09051E 21015.52603561 .00000089 00000-0 31657-4 0 9990 2 35935 98.6150 212.6829 0007632 203.2357 156.8495 14.55680060600522 XIWANG-1 (HOPE-1) 1 36122U 09072B 21015.45731472 -.00000024 00000-0 48698-4 0 9990 2 36122 100.1128 2.5856 0008203 95.7915 264.4146 13.16358653532765 JUGNU 1 37839U 11058B 21015.53068764 .00000326 00000-0 31822-4 0 9994 2 37839 19.9622 76.6208 0018730 205.9950 182.4798 14.12700534478813 SRMSAT 1 37841U 11058D 21015.57162060 .00000291 00000-0 14590-4 0 9999 2 37841 19.9709 145.0893 0011985 54.2192 36.1602 14.10683049478112 M-CUBED & EXP-1 PRIME 1 37855U 11061F 21015.55817552 .00001499 00000-0 80010-4 0 9990 2 37855 101.7257 219.6645 0168631 165.2142 195.4091 15.07088594503141 STRAND-1 1 39090U 13009E 21015.51445509 .00000030 00000-0 25464-4 0 9994 2 39090 98.4367 221.2087 0009514 20.4555 339.7010 14.35163903413109 SOMP 1 39134U 13015E 21015.23881294 .00001471 00000-0 73286-4 0 9999 2 39134 64.8633 310.4451 0012949 219.5866 140.4318 15.21874738427899 BEESAT-3 1 39135U 13015F 21015.31751159 .00001172 00000-0 65423-4 0 9997 2 39135 64.8679 336.9200 0018213 208.6669 151.3458 15.18828058427385 BEESAT-2 1 39136U 13015G 21015.31809148 .00001129 00000-0 64226-4 0 9992 2 39136 64.8743 342.6911 0029432 263.5903 96.1872 15.18205217427266 ZACUBE-1 (TSHEPISOSAT) 1 39417U 13066B 21015.53423406 .00000248 00000-0 37348-4 0 9999 2 39417 97.5791 7.9189 0057474 303.3907 56.1815 14.81408911386437 GOMX-1 1 39430U 13066Q 21015.86117024 .00000119 00000-0 30940-4 0 9994 2 39430 97.8079 307.7406 0149381 235.3303 123.3749 14.59521319380788 CUBEBUG-2 (LO-74) 1 39440U 13066AA 21015.46585302 .00000293 00000-0 47389-4 0 9997 2 39440 97.6568 352.5497 0080348 12.9985 347.3271 14.76140554383856 FUNCUBE-1 (AO-73) 1 39444U 13066AE 21015.47573726 .00000305 00000-0 43687-4 0 9990 2 39444 97.5712 10.1895 0056450 294.5392 64.9944 14.82293079384775 UWE-3 1 39446U 13066AG 21015.49749123 .00000277 00000-0 43214-4 0 9994 2 39446 97.6198 359.6548 0069306 339.2890 20.5516 14.78676503383905 SPROUT 1 39770U 14029E 21015.25299021 .00000597 00000-0 70850-4 0 9996 2 39770 97.9072 126.8231 0008890 359.3656 0.7569 14.88124115360558 UNISAT-6 1 40012U 14033C 21015.51836348 .00000192 00000-0 35554-4 0 9993 2 40012 97.6868 225.8501 0059006 35.9898 324.5262 14.74226479353661 DUCHIFAT-1 1 40021U 14033M 21015.54879273 .00000413 00000-0 47440-4 0 9993 2 40021 97.9603 314.2689 0011854 313.5745 46.4488 14.91144820357499 QB50P1 1 40025U 14033R 21015.50969400 .00000253 00000-0 32723-4 0 9995 2 40025 97.9262 305.8844 0011656 327.7893 32.2611 14.89304838356656 NUDT-PHONESAT 1 40900U 15049B 21015.77815449 .00002992 00000-0 12154-3 0 9994 2 40900 97.4255 30.9713 0011188 324.0098 122.4220 15.25308686295547 ZDPS 2A 1 40901U 15049C 21015.79782170 .00001517 00000-0 75780-4 0 9998 2 40901 97.4620 24.7788 0013366 0.8538 172.4622 15.18932361294797 ZDPS 2B 1 40902U 15049D 21015.77968704 .00001504 00000-0 75128-4 0 9998 2 40902 97.4641 22.0443 0013202 358.8874 174.1651 15.18946799294766 XW-2A 1 40903U 15049E 21015.76150734 .00002853 00000-0 63931-4 0 9991 2 40903 97.2602 70.6239 0011863 204.5162 294.2346 15.44217874299227 KAITUO 1A 1 40904U 15049F 21015.81856211 .00000413 00000-0 24950-4 0 9999 2 40904 97.4823 19.7362 0015023 13.4901 64.8699 15.15962664294416 2015-049G 1 40905U 15049G 21015.75301850 .00000578 00000-0 34625-4 0 9999 2 40905 97.4937 16.7926 0015970 12.0630 161.3329 15.14791943294211 XW-2C 1 40906U 15049H 21015.76739678 .00000722 00000-0 40497-4 0 9999 2 40906 97.4827 20.0959 0014794 4.5859 168.5013 15.16427052294427 XW-2D 1 40907U 15049J 21015.79200980 .00000892 00000-0 48878-4 0 9991 2 40907 97.4804 19.8678 0014127 1.1448 172.4904 15.16707381294456 LILACSAT-2 1 40908U 15049K 21015.77757009 .00000433 00000-0 27255-4 0 9996 2 40908 97.4983 17.9139 0016318 13.8288 71.9082 15.14254183294121 XW-2F 1 40910U 15049M 21015.79171088 .00001474 00000-0 74580-4 0 9997 2 40910 97.4702 22.7483 0014167 348.8087 96.8985 15.18520726294555 XW-2B 1 40911U 15049N 21015.78658529 .00000762 00000-0 42354-4 0 9990 2 40911 97.4811 20.5580 0014051 2.1729 171.2192 15.16627394294348 KAITUO 1B 1 40912U 15049P 21015.79291801 .00001533 00000-0 72165-4 0 9998 2 40912 97.4466 27.0654 0013548 322.2259 211.0833 15.20989699294982 TIANWANG 1C (TW-1C) 1 40926U 15051B 21015.74757050 .00108929 00000-0 39257-3 0 9995 2 40926 97.0503 76.6917 0002544 357.7414 145.7798 15.88391891300398 TIANWANG 1A (TW-1A) 1 40928U 15051D 21015.83082017 .00003846 00000-0 85286-4 0 9997 2 40928 97.0919 44.4465 0011493 126.1438 47.0025 15.44268634298123 LAPAN-A2 1 40931U 15052B 21015.83466883 .00000647 00000-0 99162-6 0 9995 2 40931 5.9986 260.8210 0013269 41.0341 319.0783 14.76658199286709 E-ST@R-II 1 41459U 16025D 21015.76943736 .00002455 00000-0 12480-3 0 9995 2 41459 98.1192 143.1836 0162062 216.6929 142.3155 15.07256730259411 AAUSAT 4 1 41460U 16025E 21015.82587530 .00005208 00000-0 24927-3 0 9998 2 41460 98.1195 146.3980 0150336 202.6039 156.8549 15.09969016259674 NUSAT-1 (FRESCO) 1 41557U 16033B 21015.80416917 .00001830 00000-0 67969-4 0 9993 2 41557 97.3991 110.6830 0014637 60.0149 96.8429 15.28771866258208 BEESAT-4 1 41619U 16040W 21015.72110025 .00001568 00000-0 65965-4 0 9994 2 41619 97.2928 75.9758 0011843 144.3876 215.8154 15.24793389241735 CAS-2T & KS-1Q 1 41847U 16066G 21015.41422864 .00000068 00000-0 21375-4 0 9999 2 41847 98.6255 73.7341 0364637 317.1966 40.1349 14.38136108219882 NAYIF-1 (EO-88) 1 42017U 17008BX 21015.42912153 .00001675 00000-0 65227-4 0 9991 2 42017 97.3363 85.6983 0004528 298.4590 61.6193 15.27366540217894 ZHUHAI-1 02 (CAS-4B) 1 42759U 17034B 21015.83809749 .00000386 00000-0 36734-4 0 9993 2 42759 43.0184 299.9979 0011134 288.9310 173.2530 15.10043298198073 ZHUHAI-1 01 (CAS-4A) 1 42761U 17034D 21015.83745064 .00000421 00000-0 38721-4 0 9993 2 42761 43.0193 299.1626 0011677 289.0680 173.4880 15.10124126198071 MAX VALIER SAT 1 42778U 17036P 21015.58349555 .00000955 00000-0 43312-4 0 9994 2 42778 97.2780 69.0577 0011886 3.6810 356.4513 15.23138013198012 RADFXSAT (FOX-1B) 1 43017U 17073E 21015.47703952 .00000589 00000-0 50262-4 0 9990 2 43017 97.7173 285.4611 0257332 79.3839 283.6243 14.79255145170503 FOX-1D (AO-92) 1 43137U 18004AC 21015.44660600 .00001198 00000-0 51272-4 0 9996 2 43137 97.4247 90.9700 0009835 38.9465 321.2479 15.24716098167340 DIWATA-2B 1 43678U 18084H 21015.78469265 .00000441 00000-0 49565-4 0 9997 2 43678 97.9044 140.4905 0009584 187.1652 172.9411 14.91701136120676 ES'HAIL 2 1 43700U 18090A 21015.38521517 .00000137 00000-0 00000-0 0 9994 2 43700 0.0210 25.3646 0001311 314.2907 299.8544 1.00267659 7832 FOX-1CLIFF (AO-95) 1 43770U 18099N 21015.47053239 .00000669 00000-0 65988-4 0 9991 2 43770 97.6842 88.9105 0014076 203.6098 156.4479 14.95167604115596 ITASAT 1 1 43786U 18099AE 21015.15322399 .00000680 00000-0 66462-4 0 9990 2 43786 97.6862 89.1704 0014729 197.8908 162.1796 14.95484955115577 JY1SAT (JO-97) 1 43803U 18099AX 21015.47515402 .00000804 00000-0 77258-4 0 9997 2 43803 97.6821 89.2600 0014826 196.8509 163.2222 14.95696673115626 PSAT2 (NO-104) 1 44354U 19036R 21015.49076420 .00008076 00000-0 10925-3 0 9991 2 44354 28.5288 63.3498 0343666 63.3392 300.1970 15.08885916 85815 BRICSAT2 (NO-103) 1 44355U 19036S 21015.75656450 .00013857 00000-0 16858-3 0 9992 2 44355 28.5280 37.0283 0302806 106.1165 257.2980 15.19524190 86093 JAISAT-1 1 44419U 19038F 21015.45610037 .00000969 00000-0 57872-4 0 9995 2 44419 97.5685 340.9765 0022684 117.6501 242.7036 15.13295798 84658 DUCHIFAT-3 1 44854U 19089C 21015.76184559 .00000475 00000-0 44577-4 0 9993 2 44854 36.9666 283.4808 0009124 334.6166 25.4152 14.99294418 60175 RS-44 & BREEZE-KM R/B 1 44909U 19096E 21015.54649977 .00000023 00000-0 37806-4 0 9994 2 44909 82.5195 214.3869 0218368 90.6363 271.9762 12.79708326 49312 ORBITAL FACTORY 2 (OF-2) 1 45113U 19071C 21015.81970238 .00001399 00000-0 52333-4 0 9991 2 45113 51.6432 56.9092 0012929 101.4108 258.8327 15.34593013 53722 HUSKYSAT-1 1 45119U 19071J 21015.83834669 .00002092 00000-0 72361-4 0 9990 2 45119 51.6430 56.2828 0012257 98.1891 262.0482 15.34713421 53727 BY70-2 1 45857U 20042B 21015.85942536 .00000958 00000-0 14444-3 0 9990 2 45857 97.9986 93.1578 0010236 352.0110 8.0928 14.76622630 29023 SALSAT 1 46495U 20068K 21015.57767038 .00000604 00000-0 48989-4 0 9998 2 46495 97.6795 314.1166 0015859 229.1908 130.7943 15.03313494 16360 BY70-3 1 46839U 20079N 21015.79669167 .00002642 00000-0 86155-4 0 9991 2 46839 97.2593 92.6711 0008370 44.4268 96.1720 15.32648770 10817 OSCAR 7 (AO-7) 1 07530U 74089B 21015.52245480 -.00000050 00000-0 -26313-4 0 9998 2 07530 101.8334 350.3184 0012150 317.2644 153.9596 12.53646902112568